KAL274 SBKP-SCEL

Flight info

Callsign KAL274
Flight time N/A
Altitude 30000
Route ASETA UL310 EDRIR/N0489F320 UL310 ARULA UM400 CBA UZ105 UMKAL UMKAL7C
Aircraft B77L/H-SDE1E2E3FGHIJ2J3J4J5M1RWXY/LB1D1

Departure

Time 2026-04-30 12:43
Airport Viracopos International Airport (SBKP)

Arrival

Time N/A
Airport Comodoro Arturo Merino Benítez International Airport (SCEL)
Time Latitude Longitude Altitude Speed Heading
2026-04-30 12:14 -23.00634 -47.14247 2161 ft 0 kts 218°
2026-04-30 12:31 -23.00618 -47.14233 2153 ft 3 kts 218°
2026-04-30 12:32 -23.00599 -47.14218 2153 ft 3 kts 218°
2026-04-30 12:32 -23.00584 -47.14204 2153 ft 3 kts 207°
2026-04-30 12:32 -23.00566 -47.14198 2153 ft 3 kts 174°
2026-04-30 12:32 -23.00547 -47.14204 2153 ft 3 kts 143°
2026-04-30 12:33 -23.00530 -47.14221 2155 ft 3 kts 129°
2026-04-30 12:33 -23.00522 -47.14231 2153 ft 0 kts 128°
2026-04-30 12:35 -23.00526 -47.14226 2154 ft 3 kts 128°
2026-04-30 12:36 -23.00548 -47.14195 2153 ft 8 kts 128°
2026-04-30 12:36 -23.00584 -47.14145 2153 ft 8 kts 128°
2026-04-30 12:36 -23.00620 -47.14094 2155 ft 9 kts 128°
2026-04-30 12:36 -23.00671 -47.14014 2154 ft 15 kts 119°
2026-04-30 12:37 -23.00710 -47.13906 2154 ft 15 kts 104°
2026-04-30 12:37 -23.00728 -47.13791 2154 ft 15 kts 105°
2026-04-30 12:37 -23.00789 -47.13697 2154 ft 15 kts 131°
2026-04-30 12:37 -23.00856 -47.13606 2158 ft 15 kts 127°
2026-04-30 12:38 -23.00922 -47.13514 2155 ft 15 kts 129°
2026-04-30 12:38 -23.00988 -47.13422 2154 ft 15 kts 128°
2026-04-30 12:38 -23.01054 -47.13330 2154 ft 15 kts 128°
2026-04-30 12:38 -23.01120 -47.13238 2153 ft 15 kts 128°
2026-04-30 12:39 -23.01186 -47.13145 2155 ft 15 kts 127°
2026-04-30 12:39 -23.01251 -47.13053 2154 ft 15 kts 128°
2026-04-30 12:39 -23.01317 -47.12961 2154 ft 15 kts 128°
2026-04-30 12:39 -23.01383 -47.12869 2154 ft 15 kts 128°
2026-04-30 12:40 -23.01449 -47.12776 2152 ft 15 kts 127°
2026-04-30 12:40 -23.01515 -47.12684 2153 ft 15 kts 128°
2026-04-30 12:40 -23.01580 -47.12592 2152 ft 15 kts 128°
2026-04-30 12:40 -23.01645 -47.12501 2154 ft 15 kts 127°
2026-04-30 12:41 -23.01711 -47.12410 2152 ft 15 kts 128°
2026-04-30 12:41 -23.01749 -47.12330 2155 ft 11 kts 84°
2026-04-30 12:41 -23.01702 -47.12268 2155 ft 11 kts 31°
2026-04-30 12:41 -23.01634 -47.12235 2157 ft 11 kts
2026-04-30 12:42 -23.01574 -47.12284 2153 ft 11 kts 307°
2026-04-30 12:42 -23.01452 -47.12455 2154 ft 59 kts 308°
2026-04-30 12:42 -23.01049 -47.13019 2158 ft 128 kts 308°
2026-04-30 12:42 -23.00376 -47.13960 2157 ft 185 kts 308°
2026-04-30 12:43 -22.99547 -47.15114 2578 ft 194 kts 308°
2026-04-30 12:43 -22.98854 -47.16358 3145 ft 198 kts 282°
2026-04-30 12:43 -22.98752 -47.17867 3665 ft 201 kts 276°
2026-04-30 12:43 -22.98609 -47.19401 4129 ft 214 kts 279°
2026-04-30 12:44 -22.98403 -47.21107 4351 ft 242 kts 279°
2026-04-30 12:44 -22.98168 -47.23004 4756 ft 260 kts 278°
2026-04-30 12:44 -22.97895 -47.24981 5358 ft 269 kts 280°
2026-04-30 12:44 -22.97595 -47.26993 6096 ft 272 kts 279°
2026-04-30 12:45 -22.97289 -47.29023 6878 ft 273 kts 279°
2026-04-30 12:45 -22.96987 -47.31066 7521 ft 275 kts 278°
2026-04-30 12:45 -22.96788 -47.33096 8201 ft 270 kts 273°
2026-04-30 12:45 -22.96685 -47.35152 8797 ft 278 kts 272°
2026-04-30 12:46 -22.96584 -47.37266 9422 ft 282 kts 272°
2026-04-30 12:46 -22.96474 -47.39376 9940 ft 282 kts 273°
2026-04-30 12:46 -22.96353 -47.41512 9958 ft 286 kts 273°
2026-04-30 12:46 -22.96237 -47.43668 9983 ft 285 kts 269°
2026-04-30 12:47 -22.96604 -47.45752 10063 ft 282 kts 247°
2026-04-30 12:47 -22.97407 -47.47730 10447 ft 295 kts 246°
2026-04-30 12:47 -22.98249 -47.49857 10602 ft 318 kts 247°
2026-04-30 12:47 -22.99144 -47.52145 10783 ft 341 kts 247°
2026-04-30 12:48 -23.00096 -47.54586 10995 ft 360 kts 247°
2026-04-30 12:48 -23.01089 -47.57131 11503 ft 370 kts 247°
2026-04-30 12:48 -23.02100 -47.59733 12134 ft 377 kts 247°
2026-04-30 12:48 -23.03124 -47.62366 12854 ft 381 kts 247°
2026-04-30 12:49 -23.04158 -47.65028 13585 ft 385 kts 246°
2026-04-30 12:49 -23.05200 -47.67714 14252 ft 388 kts 247°
2026-04-30 12:49 -23.06253 -47.70433 14884 ft 392 kts 247°
2026-04-30 12:49 -23.07329 -47.73159 15488 ft 395 kts 245°
2026-04-30 12:50 -23.08655 -47.75792 16042 ft 400 kts 239°
2026-04-30 12:50 -23.10156 -47.78330 16640 ft 404 kts 237°
2026-04-30 12:50 -23.11735 -47.80890 17237 ft 407 kts 237°
2026-04-30 12:50 -23.13311 -47.83461 17807 ft 411 kts 237°
2026-04-30 12:51 -23.14884 -47.86071 18361 ft 415 kts 238°
2026-04-30 12:51 -23.16453 -47.88721 18841 ft 419 kts 239°
2026-04-30 12:51 -23.18020 -47.91398 19366 ft 420 kts 239°
2026-04-30 12:51 -23.19587 -47.94089 19909 ft 422 kts 239°
2026-04-30 12:52 -23.21156 -47.96786 20445 ft 423 kts 239°
2026-04-30 12:52 -23.22729 -47.99492 20942 ft 426 kts 239°
2026-04-30 12:52 -23.24312 -48.02216 21439 ft 428 kts 239°
2026-04-30 12:52 -23.25908 -48.04963 21918 ft 430 kts 240°
2026-04-30 12:53 -23.27510 -48.07724 22393 ft 432 kts 240°
2026-04-30 12:53 -23.28824 -48.10657 22803 ft 432 kts 255°
2026-04-30 12:53 -23.29367 -48.13845 23143 ft 430 kts 264°
2026-04-30 12:53 -23.29753 -48.17093 23492 ft 435 kts 263°
2026-04-30 12:54 -23.30177 -48.20349 23943 ft 436 kts 263°
2026-04-30 12:54 -23.30625 -48.23563 24396 ft 436 kts 262°
2026-04-30 12:54 -23.31100 -48.26866 24818 ft 437 kts 262°
2026-04-30 12:54 -23.31577 -48.30137 25191 ft 439 kts 262°
2026-04-30 12:55 -23.32053 -48.33420 25547 ft 441 kts 262°
2026-04-30 12:55 -23.32547 -48.36676 25929 ft 443 kts 259°
2026-04-30 12:55 -23.33379 -48.39900 26306 ft 446 kts 252°
2026-04-30 12:55 -23.34553 -48.43037 26678 ft 449 kts 248°
2026-04-30 12:56 -23.36002 -48.46066 27037 ft 454 kts 241°
2026-04-30 12:56 -23.37736 -48.48944 27395 ft 457 kts 239°
2026-04-30 12:56 -23.39530 -48.51805 27770 ft 459 kts 239°
2026-04-30 12:56 -23.41346 -48.54674 28122 ft 461 kts 239°
2026-04-30 12:57 -23.43160 -48.57548 28449 ft 462 kts 239°
2026-04-30 12:57 -23.44978 -48.60446 28789 ft 464 kts 239°
2026-04-30 12:57 -23.46792 -48.63358 29139 ft 465 kts 239°
2026-04-30 12:57 -23.48602 -48.66276 29622 ft 463 kts 240°
2026-04-30 12:58 -23.50396 -48.69176 30139 ft 461 kts 240°
2026-04-30 12:58 -23.52183 -48.72071 30111 ft 459 kts 240°
2026-04-30 12:58 -23.55739 -48.77843 30147 ft 459 kts 240°
2026-04-30 12:59 -23.59294 -48.83622 30144 ft 460 kts 240°
2026-04-30 12:59 -23.62865 -48.89428 30142 ft 461 kts 240°
2026-04-30 13:00 -23.66432 -48.95233 30130 ft 460 kts 240°
2026-04-30 13:00 -23.69990 -49.01031 30127 ft 459 kts 240°
2026-04-30 13:01 -23.73538 -49.06818 30129 ft 458 kts 240°
2026-04-30 13:01 -23.77073 -49.12590 30145 ft 457 kts 240°
2026-04-30 13:02 -23.80599 -49.18356 30132 ft 456 kts 240°
2026-04-30 13:02 -23.84118 -49.24118 30131 ft 456 kts 240°
2026-04-30 13:03 -23.87631 -49.29875 30131 ft 455 kts 240°
2026-04-30 13:03 -23.91142 -49.35636 30137 ft 455 kts 240°
2026-04-30 13:04 -23.94648 -49.41397 30135 ft 455 kts 240°
2026-04-30 13:04 -23.98154 -49.47163 30130 ft 456 kts 240°
2026-04-30 13:05 -24.01659 -49.52934 30133 ft 455 kts 241°
2026-04-30 13:06 -24.06935 -49.61577 30142 ft 456 kts 238°
2026-04-30 13:06 -24.11075 -49.66884 30136 ft 461 kts 231°
2026-04-30 13:07 -24.15531 -49.71932 30141 ft 461 kts 231°
2026-04-30 13:07 -24.19967 -49.76988 30133 ft 460 kts 231°
2026-04-30 13:08 -24.23635 -49.81199 30143 ft 459 kts 231°
2026-04-30 13:08 -24.28038 -49.86273 30136 ft 459 kts 231°
2026-04-30 13:09 -24.32435 -49.91345 30140 ft 459 kts 232°
2026-04-30 13:09 -24.36830 -49.96419 30143 ft 459 kts 232°
2026-04-30 13:10 -24.41212 -50.01482 30144 ft 458 kts 232°
2026-04-30 13:10 -24.45596 -50.06556 30146 ft 458 kts 232°
2026-04-30 13:11 -24.49983 -50.11636 30133 ft 458 kts 232°
2026-04-30 13:11 -24.54356 -50.16707 30138 ft 458 kts 232°
2026-04-30 13:12 -24.58705 -50.21756 30140 ft 458 kts 232°
2026-04-30 13:12 -24.63074 -50.26835 30145 ft 457 kts 232°
2026-04-30 13:13 -24.69628 -50.34465 30144 ft 457 kts 232°
2026-04-30 13:14 -24.76177 -50.42103 30133 ft 458 kts 232°
2026-04-30 13:14 -24.82724 -50.49753 30140 ft 458 kts 232°
2026-04-30 13:15 -24.89262 -50.57420 30144 ft 458 kts 232°
2026-04-30 13:16 -24.93619 -50.62537 30125 ft 458 kts 232°
2026-04-30 13:16 -24.97973 -50.67652 30135 ft 458 kts 232°
2026-04-30 13:17 -25.04524 -50.75323 30139 ft 458 kts 232°
2026-04-30 13:18 -25.11074 -50.82999 30139 ft 458 kts 232°
2026-04-30 13:18 -25.17606 -50.90672 30147 ft 457 kts 232°
2026-04-30 13:19 -25.21954 -50.95787 30153 ft 457 kts 232°
2026-04-30 13:19 -25.26292 -51.00897 30153 ft 456 kts 232°
2026-04-30 13:20 -25.30544 -51.05911 30151 ft 456 kts 232°
2026-04-30 13:20 -25.34857 -51.11028 30148 ft 456 kts 232°
2026-04-30 13:21 -25.39177 -51.16165 30159 ft 455 kts 232°
2026-04-30 13:22 -25.45521 -51.23713 30155 ft 456 kts 232°
2026-04-30 13:22 -25.51988 -51.31423 30157 ft 456 kts 232°
2026-04-30 13:23 -25.58440 -51.39158 30156 ft 455 kts 233°
2026-04-30 13:24 -25.66081 -51.50118 30464 ft 458 kts 237°
2026-04-30 13:25 -25.69876 -51.55640 31629 ft 447 kts 237°
2026-04-30 13:25 -25.73639 -51.61102 32130 ft 448 kts 237°
2026-04-30 13:26 -25.83025 -51.74745 32147 ft 443 kts 237°
2026-04-30 13:28 -25.92368 -51.88362 32148 ft 444 kts 237°
2026-04-30 13:28 -25.97993 -51.96578 32135 ft 445 kts 237°
2026-04-30 13:29 -26.05478 -52.07536 32147 ft 445 kts 237°
2026-04-30 13:31 -26.14838 -52.21274 32142 ft 446 kts 237°
2026-04-30 13:32 -26.24190 -52.35042 32134 ft 446 kts 237°
2026-04-30 13:33 -26.31664 -52.46076 32133 ft 446 kts 237°
2026-04-30 13:34 -26.37264 -52.54360 32131 ft 445 kts 237°
2026-04-30 13:35 -26.44712 -52.65400 32128 ft 446 kts 238°
2026-04-30 13:36 -26.52157 -52.76465 32123 ft 446 kts 238°
2026-04-30 13:36 -26.57739 -52.84779 32125 ft 446 kts 238°
2026-04-30 13:37 -26.63326 -52.93116 32130 ft 447 kts 238°
2026-04-30 13:38 -26.68891 -53.01436 32118 ft 447 kts 238°
2026-04-30 13:39 -26.76327 -53.12577 32121 ft 447 kts 238°
2026-04-30 13:40 -26.81901 -53.20943 32119 ft 447 kts 238°
2026-04-30 13:40 -26.85811 -53.26385 32112 ft 451 kts 234°
2026-04-30 13:41 -26.89943 -53.31656 32121 ft 451 kts 233°
2026-04-30 13:41 -26.94072 -53.36945 32130 ft 451 kts 234°
2026-04-30 13:42 -26.98177 -53.42247 32124 ft 451 kts 234°
2026-04-30 13:42 -27.04319 -53.50229 32113 ft 450 kts 234°
2026-04-30 13:43 -27.08377 -53.55573 32107 ft 450 kts 234°
2026-04-30 13:43 -27.12436 -53.60924 32114 ft 450 kts 234°
2026-04-30 13:44 -27.16495 -53.66277 32115 ft 450 kts 234°
2026-04-30 13:44 -27.20556 -53.71635 32124 ft 451 kts 234°
2026-04-30 13:45 -27.26650 -53.79688 32117 ft 451 kts 234°
2026-04-30 13:46 -27.30709 -53.85059 32115 ft 451 kts 234°
2026-04-30 13:46 -27.34773 -53.90443 32112 ft 451 kts 235°
2026-04-30 13:47 -27.38769 -53.95745 32108 ft 451 kts 235°
2026-04-30 13:47 -27.42886 -54.01214 32112 ft 451 kts 235°
2026-04-30 13:48 -27.46945 -54.06613 32109 ft 451 kts 235°
2026-04-30 13:48 -27.50996 -54.12008 32114 ft 451 kts 235°
2026-04-30 13:49 -27.55047 -54.17411 32107 ft 451 kts 235°
2026-04-30 13:49 -27.59101 -54.22824 32105 ft 452 kts 235°
2026-04-30 13:50 -27.63000 -54.28345 32103 ft 448 kts 240°
2026-04-30 13:50 -27.68225 -54.37065 32104 ft 448 kts 241°
2026-04-30 13:51 -27.71118 -54.41903 32108 ft 448 kts 240°
2026-04-30 13:51 -27.74613 -54.47729 32110 ft 448 kts 240°
2026-04-30 13:52 -27.78678 -54.54500 32092 ft 449 kts 240°
2026-04-30 13:52 -27.82157 -54.60299 32092 ft 449 kts 240°
2026-04-30 13:53 -27.85086 -54.65188 32093 ft 449 kts 241°
2026-04-30 13:53 -27.88586 -54.71040 32098 ft 449 kts 241°
2026-04-30 13:54 -27.92076 -54.76882 32094 ft 449 kts 241°
2026-04-30 13:54 -27.95568 -54.82735 32094 ft 449 kts 241°
2026-04-30 13:55 -27.99059 -54.88596 32090 ft 449 kts 241°
2026-04-30 13:55 -28.02546 -54.94457 32092 ft 449 kts 241°
2026-04-30 13:56 -28.06026 -55.00314 32096 ft 449 kts 241°
2026-04-30 13:56 -28.09510 -55.06187 32094 ft 449 kts 241°
2026-04-30 13:57 -28.12988 -55.12057 32091 ft 449 kts 241°
2026-04-30 13:57 -28.16467 -55.17936 32097 ft 449 kts 241°
2026-04-30 13:58 -28.21680 -55.26763 32096 ft 449 kts 241°
2026-04-30 13:59 -28.25155 -55.32657 32091 ft 450 kts 241°
2026-04-30 13:59 -28.28630 -55.38558 32088 ft 450 kts 241°
2026-04-30 14:00 -28.32080 -55.44425 32091 ft 450 kts 241°
2026-04-30 14:00 -28.37306 -55.53329 32094 ft 450 kts 241°
2026-04-30 14:01 -28.40778 -55.59254 32091 ft 450 kts 241°
2026-04-30 14:01 -28.44243 -55.65174 32090 ft 450 kts 241°
2026-04-30 14:02 -28.47713 -55.71111 32092 ft 451 kts 241°
2026-04-30 14:02 -28.51176 -55.77047 32091 ft 451 kts 241°
2026-04-30 14:03 -28.54644 -55.82998 32086 ft 451 kts 241°
2026-04-30 14:03 -28.58086 -55.88913 32088 ft 451 kts 241°
2026-04-30 14:04 -28.61550 -55.94875 32089 ft 452 kts 241°
2026-04-30 14:04 -28.65013 -56.00845 32090 ft 452 kts 241°
2026-04-30 14:05 -28.68474 -56.06819 32088 ft 452 kts 241°
2026-04-30 14:05 -28.71905 -56.12811 32091 ft 451 kts 244°
2026-04-30 14:06 -28.75786 -56.22458 32085 ft 446 kts 252°
2026-04-30 14:07 -28.79279 -56.32286 32079 ft 447 kts 251°
2026-04-30 14:08 -28.82811 -56.42132 32081 ft 447 kts 251°
2026-04-30 14:08 -28.86340 -56.51987 32083 ft 448 kts 251°
2026-04-30 14:09 -28.88687 -56.58572 32082 ft 448 kts 252°
2026-04-30 14:10 -28.92192 -56.68464 32070 ft 448 kts 252°
2026-04-30 14:10 -28.94521 -56.75050 32091 ft 448 kts 252°
2026-04-30 14:11 -28.96855 -56.81662 32094 ft 448 kts 252°
2026-04-30 14:11 -28.99183 -56.88270 32095 ft 449 kts 252°
2026-04-30 14:12 -29.01496 -56.94844 32083 ft 449 kts 252°
2026-04-30 14:12 -29.03835 -57.01508 32077 ft 449 kts 252°
2026-04-30 14:13 -29.06139 -57.08081 32079 ft 449 kts 252°
2026-04-30 14:13 -29.08460 -57.14717 32086 ft 449 kts 252°
2026-04-30 14:14 -29.10773 -57.21343 32085 ft 449 kts 252°
2026-04-30 14:14 -29.13087 -57.27982 32080 ft 449 kts 252°
2026-04-30 14:15 -29.15399 -57.34630 32084 ft 450 kts 252°
2026-04-30 14:15 -29.17707 -57.41276 32083 ft 450 kts 252°
2026-04-30 14:16 -29.20012 -57.47930 32082 ft 450 kts 252°
2026-04-30 14:16 -29.22312 -57.54580 32080 ft 450 kts 252°
2026-04-30 14:17 -29.24613 -57.61243 32083 ft 450 kts 252°
2026-04-30 14:17 -29.27030 -57.67876 32084 ft 451 kts 251°
2026-04-30 14:18 -29.29531 -57.74490 32083 ft 451 kts 250°
2026-04-30 14:18 -29.33241 -57.84408 32083 ft 451 kts 251°
2026-04-30 14:19 -29.36910 -57.94300 32080 ft 451 kts 251°
2026-04-30 14:20 -29.39361 -58.00925 32084 ft 452 kts 251°
2026-04-30 14:20 -29.42993 -58.10897 32074 ft 451 kts 253°
2026-04-30 14:21 -29.45164 -58.17637 32080 ft 450 kts 254°
2026-04-30 14:22 -29.48374 -58.27770 32080 ft 450 kts 253°
2026-04-30 14:22 -29.51628 -58.37886 32079 ft 450 kts 253°
2026-04-30 14:23 -29.55864 -58.51064 32075 ft 450 kts 253°
2026-04-30 14:24 -29.59108 -58.61195 32076 ft 451 kts 253°
2026-04-30 14:25 -29.63421 -58.74714 32074 ft 451 kts 253°
2026-04-30 14:26 -29.66649 -58.84867 32070 ft 451 kts 254°
2026-04-30 14:27 -29.69930 -58.95000 32075 ft 451 kts 253°
2026-04-30 14:27 -29.72182 -59.01731 32070 ft 451 kts 253°
2026-04-30 14:28 -29.75545 -59.11842 32073 ft 451 kts 253°
2026-04-30 14:28 -29.77776 -59.18594 32071 ft 451 kts 253°
2026-04-30 14:29 -29.81850 -59.30967 32067 ft 451 kts 253°
2026-04-30 14:31 -29.87766 -59.49011 32067 ft 451 kts 253°
2026-04-30 14:31 -29.91077 -59.59154 32067 ft 451 kts 253°
2026-04-30 14:32 -29.94384 -59.69314 32069 ft 451 kts 253°
2026-04-30 14:33 -29.96585 -59.76094 32070 ft 451 kts 253°
2026-04-30 14:33 -29.99879 -59.86267 32064 ft 452 kts 253°
2026-04-30 14:34 -30.02074 -59.93060 32067 ft 452 kts 253°
2026-04-30 14:34 -30.04263 -59.99851 32068 ft 452 kts 253°
2026-04-30 14:35 -30.07545 -60.10056 32067 ft 452 kts 253°
2026-04-30 14:36 -30.09729 -60.16866 32063 ft 452 kts 254°
2026-04-30 14:36 -30.11909 -60.23677 32060 ft 452 kts 254°
2026-04-30 14:37 -30.14087 -60.30498 32060 ft 452 kts 254°
2026-04-30 14:37 -30.16261 -60.37318 32060 ft 452 kts 254°
2026-04-30 14:38 -30.18433 -60.44145 32058 ft 452 kts 254°
2026-04-30 14:38 -30.20600 -60.50973 32059 ft 453 kts 254°
2026-04-30 14:39 -30.22763 -60.57804 32061 ft 453 kts 254°
2026-04-30 14:39 -30.24925 -60.64645 32054 ft 453 kts 254°
2026-04-30 14:40 -30.28162 -60.74916 32056 ft 453 kts 254°
2026-04-30 14:40 -30.30316 -60.81771 32055 ft 453 kts 254°
2026-04-30 14:41 -30.32466 -60.88623 32053 ft 453 kts 254°
2026-04-30 14:41 -30.34602 -60.95448 32052 ft 454 kts 254°
2026-04-30 14:42 -30.36746 -61.02312 32052 ft 454 kts 254°
2026-04-30 14:42 -30.38905 -61.09235 32052 ft 454 kts 254°
2026-04-30 14:43 -30.41034 -61.16065 32050 ft 454 kts 254°
2026-04-30 14:43 -30.43176 -61.22950 32051 ft 454 kts 254°
2026-04-30 14:44 -30.45316 -61.29841 32051 ft 454 kts 254°
2026-04-30 14:44 -30.47450 -61.36733 32051 ft 454 kts 254°
2026-04-30 14:45 -30.49580 -61.43626 32050 ft 454 kts 255°
2026-04-30 14:45 -30.51710 -61.50529 32051 ft 454 kts 255°
2026-04-30 14:46 -30.53841 -61.57426 32039 ft 455 kts 254°
2026-04-30 14:46 -30.55618 -61.63166 32051 ft 455 kts 255°
2026-04-30 14:47 -30.58103 -61.71240 32047 ft 455 kts 255°
2026-04-30 14:47 -30.60211 -61.78162 32054 ft 455 kts 255°
2026-04-30 14:48 -30.62314 -61.85084 32043 ft 455 kts 255°
2026-04-30 14:48 -30.64416 -61.92009 32046 ft 455 kts 255°
2026-04-30 14:49 -30.66161 -61.97769 32048 ft 455 kts 255°
2026-04-30 14:49 -30.68258 -62.04705 32040 ft 455 kts 255°
2026-04-30 14:50 -30.71400 -62.15124 32038 ft 455 kts 255°
2026-04-30 14:51 -30.74531 -62.25544 32036 ft 456 kts 255°
2026-04-30 14:52 -30.77660 -62.35989 32040 ft 456 kts 255°
2026-04-30 14:52 -30.80791 -62.46433 32044 ft 456 kts 255°
2026-04-30 14:53 -30.83925 -62.56892 32040 ft 456 kts 255°
2026-04-30 14:54 -30.88088 -62.70855 32040 ft 457 kts 255°
2026-04-30 14:55 -30.91195 -62.81314 32034 ft 457 kts 255°
2026-04-30 14:56 -30.95324 -62.95273 32036 ft 457 kts 255°
2026-04-30 14:57 -30.98420 -63.05779 32035 ft 457 kts 255°
2026-04-30 14:58 -31.02537 -63.19806 32035 ft 457 kts 255°
2026-04-30 14:58 -31.05582 -63.30292 32035 ft 457 kts 255°
2026-04-30 15:00 -31.10659 -63.47877 32030 ft 458 kts 255°
2026-04-30 15:01 -31.14703 -63.61947 32026 ft 458 kts 255°
2026-04-30 15:01 -31.17731 -63.72523 32018 ft 458 kts 256°
2026-04-30 15:02 -31.19743 -63.79575 32021 ft 458 kts 256°
2026-04-30 15:03 -31.24754 -63.97209 32015 ft 458 kts 256°
2026-04-30 15:04 -31.29752 -64.14897 32021 ft 459 kts 256°
2026-04-30 15:06 -31.35504 -64.32364 32003 ft 462 kts 251°
2026-04-30 15:07 -31.40444 -64.46248 31993 ft 463 kts 252°
2026-04-30 15:08 -31.45342 -64.60183 31995 ft 463 kts 252°
2026-04-30 15:09 -31.51420 -64.77555 31987 ft 462 kts 252°
2026-04-30 15:10 -31.56278 -64.91505 31987 ft 462 kts 252°
2026-04-30 15:11 -31.63551 -65.12499 31976 ft 463 kts 252°
2026-04-30 15:13 -31.69590 -65.30008 31963 ft 463 kts 252°
2026-04-30 15:14 -31.78005 -65.54534 31955 ft 463 kts 252°
2026-04-30 15:17 -31.88757 -65.86146 31952 ft 463 kts 252°
2026-04-30 15:19 -31.98204 -66.14303 31939 ft 464 kts 252°